QPF
0.01 0.01 0.01 0.01 0.01 0.01 0.02 0.02 0.02 0.01 0.00 0.00 0.01 0.00 0.01 0.01 0.03 0.04 0.04 0.04 0.04 0.04 0.03 0.02 0.01 0.01 0.01 0.01 0.01 0.02 0.03 0.03 0.02 0.02 0.02 0.02 0.03 0.03
0.01 0.01 0.01 0.01 0.01 0.02 0.03 0.02 0.01 0.01 0.01 0.00 0.00 0.01 0.01 0.00 0.01 0.02 0.02 0.02 0.03 0.03 0.02 0.02 0.01 0.01 0.00 0.00 0.00 0.01 0.02 0.03 0.02 0.01 0.01 0.01 0.01 0.01
0.01 0.01 0.00 0.01 0.01 0.01 0.02 0.02 0.02 0.01 0.01 0.00 0.00 0.00 0.01 0.01 0.01 0.01 0.01 0.01 0.01 0.02 0.01 0.01 0.01 0.01 0.01 0.01 0.01 0.01 0.01 0.02 0.02 0.02 0.01 0.01 0.01 0.01
0.01 0.01 0.01 0.01 0.01 0.02 0.02 0.01 0.01 0.01 0.01 0.01 0.01 0.01 0.01 0.01 0.01 0.01 0.02 0.01 0.01 0.01 0.01 0.01 0.02 0.02 0.02 0.01 0.01 0.01 0.01 0.01 0.02 0.02 0.01 0.01 0.01 0.01
0.01 0.01 0.01 0.01 0.02 0.02 0.02 0.02 0.02 0.02 0.02 0.01 0.01 0.01 0.01 0.01 0.01 0.01 0.02 0.02 0.01 0.01 0.01 0.01 0.01 0.01 0.02 0.02 0.01 0.02 0.01 0.01 0.01 0.01 0.01 0.01 0.01 0.01
0.01 0.01 0.02 0.02 0.02 0.01 0.01 0.02 0.02 0.02 0.02 0.02 0.02 0.01 0.01 0.01 0.01 0.01 0.01 0.01 0.01 0.01 0.01 0.01 0.01 0.01 0.02 0.02 0.01 0.02 0.02 0.02 0.01 0.01 0.00 0.00 0.01 0.01
0.01 0.01 0.01 0.02 0.01 0.02 0.01 0.01 0.02 0.01 0.02 0.02 0.02 0.01 0.01 0.01 0.01 0.01 0.01 0.00 0.00 0.01 0.01 0.00 0.01 0.01 0.01 0.03 0.03 0.03 0.03 0.02 0.02 0.01 0.01 0.00 0.01 0.01
0.01 0.01 0.01 0.01 0.02 0.03 0.02 0.02 0.02 0.02 0.02 0.02 0.02 0.01 0.01 0.01 0.01 0.01 0.01 0.01 0.00 0.00 0.00 0.01 0.01 0.00 0.00 0.01 0.02 0.03 0.03 0.03 0.02 0.01 0.01 0.01 0.01 0.01
0.01 0.01 0.01 0.02 0.03 0.03 0.03 0.03 0.03 0.02 0.02 0.02 0.02 0.02 0.01 0.01 0.01 0.01 0.01 0.01 0.01 0.01 0.01 0.01 0.01 0.01 0.01 0.01 0.01 0.01 0.01 0.01 0.01 0.01 0.01 0.01 0.01 0.02
0.01 0.01 0.01 0.01 0.02 0.02 0.03 0.03 0.02 0.02 0.02 0.02 0.03 0.02 0.01 0.00 0.01 0.01 0.01 0.00 0.01 0.01 0.01 0.01 0.01 0.01 0.01 0.01 0.02 0.01 0.01 0.01 0.01 0.01 0.01 0.01 0.02 0.02
0.02 0.02 0.02 0.02 0.03 0.03 0.03 0.03 0.02 0.01 0.02 0.02 0.02 0.01 0.01 0.00 0.00 0.01 0.01 0.01 0.01 0.01 0.01 0.03 0.04 0.03 0.02 0.02 0.03 0.03 0.03 0.02 0.02 0.02 0.02 0.02 0.02 0.02
0.02 0.02 0.02 0.02 0.03 0.03 0.02 0.02 0.02 0.01 0.01 0.01 0.01 0.01 0.00 0.00 0.00 0.00 0.01 0.01 0.01 0.01 0.01 0.02 0.03 0.04 0.04 0.04 0.04 0.04 0.04 0.04 0.04 0.04 0.03 0.03 0.02 0.02
0.02 0.01 0.01 0.02 0.02 0.03 0.02 0.02 0.02 0.02 0.01 0.01 0.01 0.01 0.00 0.00 0.00 0.00 0.00 0.00 0.01 0.01 0.01 0.01 0.02 0.03 0.04 0.04 0.04 0.04 0.05 0.04 0.03 0.04 0.04 0.04 0.03 0.02
0.01 0.01 0.01 0.01 0.02 0.02 0.03 0.03 0.03 0.02 0.02 0.01 0.01 0.01 0.01 0.00 0.00 0.00 0.00 0.00 0.00 0.01 0.01 0.01 0.02 0.03 0.04 0.04 0.04 0.05 0.06 0.05 0.03 0.03 0.04 0.04 0.04 0.04
0.01 0.01 0.01 0.01 0.02 0.02 0.02 0.02 0.02 0.02 0.02 0.02 0.01 0.01 0.01 0.01 0.01 0.01 0.00 0.00 0.00 0.00 0.01 0.01 0.01 0.02 0.04 0.05 0.05 0.06 0.07 0.06 0.04 0.03 0.03 0.03 0.03 0.04
0.01 0.01 0.01 0.01 0.02 0.01 0.02 0.02 0.02 0.02 0.02 0.02 0.02 0.02 0.02 0.02 0.02 0.02 0.01 0.01 0.01 0.01 0.01 0.01 0.01 0.02 0.04 0.05 0.06 0.07 0.07 0.07 0.06 0.04 0.03 0.03 0.02 0.02
0.01 0.01 0.01 0.01 0.01 0.01 0.01 0.02 0.02 0.03 0.03 0.03 0.02 0.02 0.02 0.02 0.02 0.02 0.02 0.02 0.02 0.01 0.01 0.01 0.02 0.03 0.04 0.06 0.07 0.07 0.08 0.07 0.06 0.05 0.04 0.03 0.02 0.01
0.01 0.01 0.01 0.00 0.00 0.00 0.00 0.01 0.01 0.02 0.03 0.04 0.04 0.04 0.04 0.04 0.04 0.04 0.04 0.04 0.04 0.03 0.03 0.03 0.03 0.04 0.06 0.07 0.07 0.08 0.08 0.07 0.06 0.06 0.04 0.03 0.02 0.02
0.02 0.01 0.01 0.01 0.01 0.00 0.00 0.00 0.00 0.01 0.04 0.05 0.05 0.04 0.03 0.02 0.03 0.03 0.03 0.03 0.03 0.04 0.04 0.05 0.05 0.06 0.07 0.07 0.07 0.08 0.08 0.08 0.06 0.05 0.05 0.04 0.03 0.02
0.03 0.02 0.02 0.01 0.01 0.01 0.01 0.01 0.01 0.01 0.02 0.03 0.03 0.03 0.02 0.02 0.02 0.02 0.02 0.02 0.02 0.02 0.02 0.02 0.02 0.03 0.04 0.04 0.04 0.05 0.06 0.07 0.07 0.05 0.05 0.05 0.04 0.03
0.03 0.03 0.03 0.03 0.02 0.01 0.01 0.00 0.01 0.01 0.01 0.02 0.02 0.01 0.01 0.02 0.02 0.02 0.02 0.02 0.02 0.01 0.01 0.01 0.02 0.03 0.03 0.04 0.04 0.04 0.04 0.05 0.05 0.05 0.04 0.04 0.03 0.02
0.02 0.02 0.02 0.03 0.02 0.02 0.02 0.01 0.01 0.00 0.01 0.01 0.02 0.02 0.02 0.02 0.02 0.02 0.02 0.03 0.02 0.02 0.02 0.01 0.01 0.02 0.02 0.02 0.03 0.04 0.04 0.04 0.04 0.04 0.04 0.03 0.03 0.03
0.02 0.02 0.02 0.03 0.03 0.03 0.03 0.03 0.02 0.02 0.01 0.01 0.01 0.01 0.02 0.02 0.01 0.02 0.02 0.02 0.03 0.03 0.03 0.03 0.02 0.03 0.03 0.04 0.04 0.04 0.03 0.03 0.03 0.03 0.02 0.03 0.03 0.02
MSLP
1014.54 1014.66 1014.73 1014.74 1014.66 1014.50 1014.25 1013.92 1013.55 1013.14 1012.72 1012.32 1011.95 1011.63 1011.34 1011.10 1010.89 1010.70 1010.52 1010.35 1010.17 1009.99 1009.80 1009.63 1009.48 1009.38 1009.34 1009.41 1009.59 1009.91 1010.37 1010.96 1011.64 1012.39 1013.17 1013.91 1014.59 1015.17
1014.34 1014.43 1014.48 1014.45 1014.35 1014.17 1013.91 1013.60 1013.25 1012.89 1012.53 1012.19 1011.90 1011.63 1011.41 1011.21 1011.02 1010.84 1010.66 1010.46 1010.25 1010.03 1009.81 1009.60 1009.43 1009.32 1009.29 1009.38 1009.60 1009.95 1010.45 1011.07 1011.78 1012.54 1013.31 1014.03 1014.68 1015.23
1014.18 1014.25 1014.27 1014.23 1014.11 1013.92 1013.67 1013.37 1013.05 1012.73 1012.42 1012.14 1011.89 1011.68 1011.49 1011.32 1011.15 1010.96 1010.77 1010.55 1010.31 1010.07 1009.82 1009.60 1009.43 1009.32 1009.31 1009.43 1009.68 1010.07 1010.59 1011.23 1011.96 1012.72 1013.48 1014.18 1014.80 1015.32
1014.06 1014.13 1014.14 1014.08 1013.96 1013.78 1013.54 1013.27 1012.98 1012.69 1012.42 1012.18 1011.96 1011.78 1011.61 1011.44 1011.27 1011.09 1010.88 1010.65 1010.40 1010.15 1009.90 1009.68 1009.52 1009.43 1009.45 1009.59 1009.87 1010.29 1010.84 1011.49 1012.21 1012.96 1013.70 1014.38 1014.97 1015.46
1014.00 1014.06 1014.08 1014.03 1013.92 1013.76 1013.54 1013.30 1013.04 1012.78 1012.53 1012.31 1012.11 1011.93 1011.77 1011.60 1011.43 1011.24 1011.04 1010.81 1010.57 1010.32 1010.10 1009.90 1009.76 1009.71 1009.76 1009.93 1010.23 1010.67 1011.22 1011.86 1012.56 1013.28 1013.99 1014.63 1015.19 1015.65
1013.97 1014.04 1014.07 1014.04 1013.96 1013.82 1013.64 1013.43 1013.20 1012.96 1012.73 1012.52 1012.32 1012.14 1011.98 1011.81 1011.64 1011.46 1011.27 1011.06 1010.85 1010.64 1010.45 1010.29 1010.20 1010.18 1010.26 1010.45 1010.76 1011.19 1011.73 1012.34 1013.01 1013.69 1014.34 1014.94 1015.46 1015.90
1013.96 1014.04 1014.08 1014.08 1014.03 1013.93 1013.79 1013.61 1013.41 1013.20 1012.99 1012.78 1012.58 1012.40 1012.23 1012.07 1011.91 1011.75 1011.59 1011.42 1011.25 1011.09 1010.96 1010.85 1010.80 1010.82 1010.93 1011.13 1011.44 1011.85 1012.35 1012.92 1013.53 1014.15 1014.74 1015.29 1015.76 1016.16
1013.92 1014.02 1014.09 1014.11 1014.10 1014.04 1013.94 1013.80 1013.63 1013.44 1013.25 1013.05 1012.86 1012.68 1012.51 1012.36 1012.22 1012.10 1011.97 1011.86 1011.75 1011.65 1011.58 1011.53 1011.53 1011.58 1011.70 1011.91 1012.19 1012.57 1013.02 1013.52 1014.06 1014.61 1015.14 1015.62 1016.04 1016.39
1013.84 1013.96 1014.05 1014.11 1014.14 1014.12 1014.06 1013.96 1013.83 1013.66 1013.48 1013.30 1013.11 1012.95 1012.79 1012.67 1012.55 1012.47 1012.39 1012.33 1012.29 1012.25 1012.23 1012.24 1012.27 1012.35 1012.48 1012.67 1012.93 1013.26 1013.65 1014.08 1014.54 1015.01 1015.46 1015.87 1016.23 1016.53
1013.71 1013.84 1013.97 1014.07 1014.13 1014.16 1014.14 1014.07 1013.97 1013.83 1013.67 1013.51 1013.34 1013.18 1013.05 1012.94 1012.86 1012.81 1012.78 1012.76 1012.77 1012.79 1012.82 1012.86 1012.93 1013.02 1013.15 1013.32 1013.54 1013.82 1014.14 1014.50 1014.89 1015.27 1015.64 1015.98 1016.27 1016.51
1013.52 1013.69 1013.85 1013.99 1014.09 1014.16 1014.17 1014.15 1014.07 1013.96 1013.82 1013.67 1013.51 1013.37 1013.24 1013.15 1013.09 1013.07 1013.07 1013.09 1013.13 1013.18 1013.24 1013.31 1013.39 1013.48 1013.60 1013.76 1013.95 1014.17 1014.43 1014.73 1015.03 1015.34 1015.64 1015.90 1016.12 1016.30
1013.30 1013.52 1013.72 1013.89 1014.04 1014.14 1014.19 1014.19 1014.14 1014.04 1013.92 1013.78 1013.63 1013.49 1013.37 1013.28 1013.23 1013.21 1013.22 1013.25 1013.31 1013.37 1013.45 1013.52 1013.61 1013.70 1013.81 1013.94 1014.09 1014.28 1014.49 1014.71 1014.95 1015.19 1015.42 1015.61 1015.77 1015.89
1013.06 1013.33 1013.58 1013.80 1013.98 1014.11 1014.19 1014.21 1014.18 1014.09 1013.98 1013.83 1013.69 1013.54 1013.42 1013.32 1013.26 1013.23 1013.23 1013.26 1013.30 1013.36 1013.43 1013.51 1013.59 1013.67 1013.77 1013.87 1014.00 1014.15 1014.31 1014.48 1014.66 1014.83 1014.99 1015.12 1015.22 1015.29
1012.82 1013.14 1013.44 1013.70 1013.91 1014.07 1014.16 1014.20 1014.18 1014.10 1013.98 1013.84 1013.68 1013.53 1013.39 1013.27 1013.19 1013.13 1013.11 1013.11 1013.14 1013.18 1013.24 1013.30 1013.37 1013.44 1013.52 1013.61 1013.71 1013.82 1013.94 1014.06 1014.18 1014.30 1014.39 1014.46 1014.51 1014.52
1012.56 1012.93 1013.27 1013.56 1013.80 1013.97 1014.08 1014.12 1014.11 1014.03 1013.92 1013.77 1013.61 1013.44 1013.29 1013.15 1013.03 1012.95 1012.90 1012.87 1012.87 1012.89 1012.93 1012.97 1013.02 1013.08 1013.15 1013.21 1013.29 1013.36 1013.44 1013.51 1013.58 1013.63 1013.66 1013.67 1013.67 1013.64
1012.27 1012.67 1013.03 1013.34 1013.59 1013.77 1013.89 1013.94 1013.93 1013.86 1013.75 1013.61 1013.45 1013.28 1013.11 1012.96 1012.82 1012.71 1012.63 1012.58 1012.56 1012.55 1012.56 1012.59 1012.63 1012.67 1012.71 1012.76 1012.80 1012.83 1012.86 1012.88 1012.88 1012.87 1012.84 1012.80 1012.74 1012.67
1011.91 1012.32 1012.68 1012.99 1013.24 1013.42 1013.54 1013.60 1013.60 1013.55 1013.45 1013.33 1013.18 1013.02 1012.86 1012.71 1012.57 1012.45 1012.35 1012.28 1012.24 1012.22 1012.21 1012.22 1012.23 1012.25 1012.27 1012.28 1012.29 1012.27 1012.25 1012.21 1012.15 1012.07 1011.98 1011.87 1011.76 1011.65
1011.45 1011.83 1012.17 1012.47 1012.70 1012.88 1013.00 1013.07 1013.08 1013.06 1012.99 1012.90 1012.79 1012.66 1012.53 1012.40 1012.27 1012.16 1012.07 1012.00 1011.94 1011.91 1011.89 1011.88 1011.87 1011.86 1011.85 1011.82 1011.78 1011.71 1011.63 1011.52 1011.39 1011.25 1011.10 1010.94 1010.78 1010.63
1010.87 1011.21 1011.51 1011.78 1011.99 1012.16 1012.28 1012.36 1012.40 1012.41 1012.39 1012.34 1012.28 1012.21 1012.12 1012.03 1011.95 1011.86 1011.79 1011.72 1011.67 1011.63 1011.59 1011.56 1011.53 1011.49 1011.44 1011.37 1011.28 1011.16 1011.01 1010.85 1010.66 1010.46 1010.25 1010.04 1009.84 1009.66
1010.18 1010.47 1010.73 1010.95 1011.14 1011.30 1011.42 1011.51 1011.58 1011.63 1011.67 1011.68 1011.69 1011.68 1011.66 1011.63 1011.59 1011.55 1011.50 1011.45 1011.41 1011.36 1011.32 1011.27 1011.21 1011.14 1011.05 1010.93 1010.79 1010.63 1010.43 1010.22 1009.98 1009.73 1009.48 1009.23 1008.99 1008.78
1009.42 1009.65 1009.87 1010.06 1010.23 1010.37 1010.50 1010.61 1010.72 1010.81 1010.90 1010.98 1011.05 1011.11 1011.16 1011.20 1011.22 1011.22 1011.21 1011.19 1011.15 1011.11 1011.05 1010.98 1010.90 1010.80 1010.67 1010.52 1010.35 1010.15 1009.92 1009.67 1009.41 1009.14 1008.86 1008.58 1008.31 1008.07
1008.62 1008.83 1009.02 1009.20 1009.35 1009.50 1009.64 1009.77 1009.90 1010.04 1010.18 1010.31 1010.45 1010.58 1010.69 1010.79 1010.86 1010.91 1010.94 1010.94 1010.92 1010.88 1010.82 1010.73 1010.63 1010.50 1010.35 1010.18 1009.99 1009.77 1009.53 1009.28 1009.01 1008.72 1008.44 1008.15 1007.86 1007.58
1007.87 1008.08 1008.28 1008.46 1008.63 1008.78 1008.94 1009.09 1009.24 1009.41 1009.59 1009.77 1009.95 1010.13 1010.30 1010.45 1010.57 1010.66 1010.72 1010.75 1010.75 1010.71 1010.65 1010.55 1010.44 1010.30 1010.14 1009.97 1009.77 1009.56 1009.33 1009.08 1008.82 1008.55 1008.27 1007.97 1007.66 1007.34
Thickness
5697 5697 5696 5696 5695 5695 5693 5691 5687 5683 5683 5686 5688 5690 5689 5689 5688 5687 5687 5687 5686 5686 5685 5684 5683 5682 5680 5679 5678 5677 5675 5674 5672 5670 5668 5665 5663 5661
5695 5694 5693 5693 5693 5692 5691 5690 5689 5685 5682 5684 5685 5686 5686 5686 5685 5685 5684 5684 5684 5684 5683 5682 5681 5680 5679 5678 5676 5675 5674 5672 5669 5668 5665 5663 5660 5658
5692 5692 5691 5691 5691 5690 5689 5687 5686 5684 5681 5682 5681 5682 5682 5682 5682 5682 5682 5681 5682 5681 5681 5680 5680 5679 5678 5676 5675 5673 5671 5669 5667 5665 5663 5660 5658 5656
5690 5689 5689 5689 5688 5687 5686 5684 5683 5682 5680 5678 5678 5678 5678 5679 5679 5678 5678 5678 5679 5679 5679 5678 5678 5677 5676 5674 5673 5671 5669 5667 5665 5663 5661 5658 5656 5653
5689 5688 5687 5686 5685 5684 5683 5682 5681 5680 5678 5676 5675 5674 5674 5675 5675 5675 5675 5675 5676 5676 5676 5676 5675 5675 5674 5672 5671 5669 5667 5665 5663 5661 5658 5656 5653 5650
5687 5686 5685 5685 5684 5683 5682 5680 5678 5676 5675 5673 5672 5671 5670 5671 5670 5670 5670 5671 5672 5673 5673 5673 5673 5672 5671 5670 5669 5667 5665 5663 5660 5658 5656 5653 5650 5648
5683 5683 5683 5683 5682 5681 5680 5678 5676 5674 5672 5670 5669 5668 5667 5666 5667 5667 5666 5667 5668 5669 5669 5670 5669 5669 5668 5667 5666 5665 5663 5660 5658 5655 5653 5650 5647 5645
5679 5679 5680 5680 5679 5678 5678 5677 5676 5673 5671 5668 5667 5666 5666 5665 5665 5664 5663 5662 5663 5665 5664 5665 5665 5665 5666 5665 5664 5662 5660 5658 5655 5652 5650 5647 5644 5642
5676 5676 5676 5677 5676 5675 5675 5674 5673 5672 5671 5669 5667 5666 5665 5665 5663 5661 5660 5659 5660 5661 5659 5661 5662 5661 5662 5661 5660 5658 5656 5654 5652 5649 5647 5644 5641 5639
5673 5673 5672 5672 5672 5671 5671 5670 5670 5670 5669 5668 5667 5667 5666 5665 5662 5661 5659 5657 5657 5657 5656 5656 5658 5658 5658 5657 5656 5655 5653 5651 5649 5646 5644 5641 5638 5636
5668 5669 5669 5668 5668 5667 5667 5666 5666 5666 5666 5666 5665 5664 5663 5661 5659 5657 5655 5653 5653 5654 5653 5652 5654 5653 5653 5653 5652 5650 5649 5647 5645 5643 5640 5637 5635 5631
5663 5664 5664 5664 5664 5662 5662 5662 5661 5662 5663 5663 5662 5661 5660 5658 5656 5654 5654 5651 5650 5650 5650 5648 5648 5647 5647 5648 5647 5645 5643 5642 5640 5638 5636 5633 5630 5626
5659 5660 5660 5660 5659 5658 5658 5658 5659 5659 5659 5658 5658 5657 5656 5655 5654 5652 5651 5649 5648 5648 5647 5645 5644 5642 5641 5641 5641 5640 5638 5637 5635 5634 5632 5629 5626 5623
5654 5655 5656 5654 5654 5653 5653 5654 5654 5653 5653 5653 5652 5652 5652 5652 5651 5650 5648 5647 5646 5645 5644 5642 5640 5638 5637 5636 5636 5636 5634 5632 5631 5629 5628 5625 5623 5620
5649 5650 5649 5649 5648 5648 5648 5648 5648 5648 5648 5648 5648 5649 5649 5648 5647 5646 5645 5643 5642 5641 5641 5639 5637 5635 5633 5632 5632 5632 5630 5629 5627 5626 5624 5622 5620 5617
5642 5643 5642 5641 5642 5642 5643 5643 5644 5644 5644 5645 5645 5645 5644 5643 5642 5641 5640 5640 5639 5639 5638 5636 5634 5632 5630 5630 5628 5628 5627 5626 5625 5623 5621 5619 5617 5615
5637 5636 5636 5636 5636 5636 5637 5638 5638 5638 5638 5639 5639 5639 5638 5637 5637 5636 5635 5634 5634 5634 5634 5632 5630 5628 5627 5626 5626 5626 5625 5624 5622 5619 5616 5615 5614 5612
5631 5632 5631 5631 5631 5632 5632 5632 5632 5633 5634 5634 5633 5633 5633 5632 5631 5630 5629 5628 5628 5628 5627 5627 5625 5624 5623 5624 5623 5623 5622 5620 5619 5616 5614 5612 5612 5611
5625 5627 5627 5627 5627 5627 5627 5627 5627 5628 5628 5627 5627 5628 5628 5627 5626 5625 5624 5623 5622 5622 5622 5621 5620 5619 5618 5620 5623 5619 5618 5617 5615 5613 5611 5609 5609 5609
5619 5621 5622 5622 5622 5622 5622 5622 5622 5622 5622 5622 5622 5622 5621 5621 5620 5619 5618 5618 5618 5617 5617 5616 5616 5615 5615 5615 5616 5616 5613 5612 5610 5609 5608 5606 5605 5604
5615 5616 5617 5617 5617 5617 5616 5616 5616 5616 5616 5616 5616 5616 5616 5615 5614 5614 5614 5612 5611 5612 5612 5613 5613 5611 5610 5609 5609 5611 5610 5607 5606 5604 5603 5602 5601 5601
5611 5611 5612 5612 5612 5612 5611 5610 5610 5610 5611 5611 5611 5610 5610 5609 5609 5608 5608 5607 5607 5607 5608 5608 5607 5606 5605 5605 5606 5606 5605 5603 5601 5598 5597 5596 5595 5596
5605 5605 5606 5606 5606 5606 5605 5604 5604 5604 5604 5604 5604 5604 5604 5603 5603 5603 5602 5602 5602 5602 5602 5602 5601 5600 5600 5600 5600 5599 5599 5598 5596 5595 5593 5591 5590 5589